| time (UTC) | temp C | wind direction | speed KPH | gust KPH | rain 1hr cm | rain 24hr cm | rain mn cm | humidity % | barometer mb |
| 20260507200629 | 21 | 291 | 4.8 | 6.4 | 0.00 | 0.00 | 0.00 | 64 | 1009.0 |
| 20260507193628 | 22 | 291 | 4.8 | 6.4 | 0.00 | 0.00 | 0.00 | 64 | 1008.0 |
| 20260507190627 | 22 | 272 | 1.6 | 6.4 | 0.00 | 0.00 | 0.00 | 60 | 1009.0 |
| 20260507183626 | 23 | 272 | 1.6 | 6.4 | 0.00 | 0.00 | 0.00 | 60 | 1009.0 |
| 20260507180625 | 23 | 159 | 1.6 | 4.8 | 0.00 | 0.00 | 0.00 | 64 | 1010.0 |
| 20260507173624 | 24 | 159 | 1.6 | 4.8 | 0.00 | 0.00 | 0.00 | 64 | 1011.0 |
| 20260507170623 | 25 | 159 | 1.6 | 4.8 | 0.00 | 0.00 | 0.00 | 64 | 1012.0 |
| 20260507163621 | 26 | 159 | 1.6 | 4.8 | 0.00 | 0.00 | 0.00 | 64 | 1012.0 |
| 20260507160620 | 21 | 141 | 3.2 | 3.2 | 0.00 | 0.00 | 0.00 | 73 | 1014.0 |
| 20260507153619 | 19 | 128 | 1.6 | 1.6 | 0.00 | 0.00 | 0.00 | 76 | 1014.0 |
| 20260507150618 | 20 | 128 | 3.2 | 3.2 | 0.00 | 0.00 | 0.00 | 76 | 1015.0 |
| 20260507143617 | 17 | 120 | 1.6 | 1.6 | 0.00 | 0.00 | 0.00 | 80 | 1015.0 |
| 20260507140616 | 18 | 120 | 3.2 | 1.6 | 0.00 | 0.00 | 0.00 | 80 | 1015.0 |
| 20260507133615 | 17 | 115 | 1.6 | 1.6 | 0.00 | 0.00 | 0.00 | 86 | 1015.0 |
| 20260507130614 | 18 | 115 | 1.6 | 1.6 | 0.00 | 0.00 | 0.00 | 86 | 1015.0 |
| 20260507123613 | 15 | 115 | 1.6 | 1.6 | 0.00 | 0.00 | 0.00 | 89 | 1015.0 |
| 20260507120612 | 13 | 177 | 1.6 | 1.6 | 0.00 | 0.00 | 0.00 | 90 | 1015.0 |
| 20260507113611 | 15 | 177 | 1.6 | 1.6 | 0.00 | 0.00 | 0.00 | 90 | 1015.0 |
| 20260507110610 | 12 | 273 | 0.0 | 0.0 | 0.00 | 0.00 | 0.00 | 90 | 1015.0 |
| 20260507103609 | 13 | 273 | 0.0 | 0.0 | 0.00 | 0.00 | 0.00 | 90 | 1015.0 |
| 20260507100608 | 12 | 289 | 0.0 | 0.0 | 0.00 | 0.00 | 0.00 | 89 | 1015.0 |
| 20260507093607 | 13 | 289 | 0.0 | 0.0 | 0.00 | 0.00 | 0.00 | 89 | 1015.0 |
| 20260507090606 | 12 | 286 | 1.6 | 0.0 | 0.00 | 0.00 | 0.00 | 88 | 1015.0 |
| 20260507083605 | 13 | 286 | 1.6 | 0.0 | 0.00 | 0.00 | 0.00 | 88 | 1014.0 |
| 20260507080604 | 14 | 286 | 1.6 | 0.0 | 0.00 | 0.00 | 0.00 | 88 | 1015.0 |
| 20260507073603 | 12 | 315 | 1.6 | 1.6 | 0.00 | 0.00 | 0.00 | 93 | 1014.0 |
| 20260507070602 | 13 | 315 | 1.6 | 1.6 | 0.00 | 0.00 | 0.00 | 93 | 1015.0 |
| 20260507063601 | 15 | 315 | 1.6 | 1.6 | 0.00 | 0.00 | 0.00 | 93 | 1015.0 |
| 20260507060600 | 13 | 299 | 1.6 | 1.6 | 0.00 | 0.00 | 0.00 | 91 | 1015.0 |
| 20260507053559 | 14 | 299 | 3.2 | 1.6 | 0.00 | 0.00 | 0.00 | 91 | 1015.0 |
| 20260507050558 | 13 | 301 | 1.6 | 1.6 | 0.00 | 0.00 | 0.00 | 88 | 1016.0 |
| 20260507043557 | 14 | 301 | 3.2 | 1.6 | 0.00 | 0.00 | 0.00 | 88 | 1016.0 |
| 20260507040556 | 13 | 299 | 4.8 | 4.8 | 0.00 | 0.00 | 0.00 | 83 | 1016.0 |
| 20260507033555 | 14 | 299 | 4.8 | 4.8 | 0.00 | 0.00 | 0.00 | 83 | 1016.0 |
| 20260507030553 | 15 | 299 | 4.8 | 4.8 | 0.00 | 0.00 | 0.00 | 83 | 1016.0 |
| 20260507023553 | 13 | 303 | 6.4 | 4.8 | 0.00 | 0.00 | 0.00 | 82 | 1015.0 |
| 20260507020551 | 15 | 303 | 6.4 | 4.8 | 0.00 | 0.00 | 0.00 | 82 | 1015.0 |
| 20260507013550 | 14 | 303 | 6.4 | 4.8 | 0.00 | 0.00 | 0.00 | 83 | 1014.0 |
| 20260507010549 | 14 | 302 | 6.4 | 8.0 | 0.00 | 0.00 | 0.00 | 85 | 1014.0 |
| 20260507003548 | 14 | 302 | 6.4 | 8.0 | 0.00 | 0.00 | 0.00 | 76 | 1014.0 |
| 20260507000547 | 15 | 286 | 6.4 | 8.0 | 0.00 | 0.00 | 0.00 | 75 | 1013.0 |
| 20260506233547 | 16 | 286 | 6.4 | 8.0 | 0.00 | 0.00 | 0.00 | 75 | 1012.0 |
| 20260506230546 | 16 | 288 | 4.8 | 8.0 | 0.00 | 0.00 | 0.00 | 74 | 1011.0 |
| 20260506223545 | 17 | 288 | 4.8 | 8.0 | 0.00 | 0.00 | 0.00 | 74 | 1011.0 |
| 20260506220544 | 18 | 288 | 4.8 | 8.0 | 0.00 | 0.00 | 0.00 | 74 | 1010.0 |
| 20260506213543 | 19 | 288 | 4.8 | 8.0 | 0.00 | 0.00 | 0.00 | 74 | 1010.0 |
| 20260506210542 | 20 | 288 | 4.8 | 8.0 | 0.00 | 0.00 | 0.00 | 74 | 1009.0 |
| 20260506203540 | 21 | 288 | 4.8 | 9.7 | 0.00 | 0.00 | 0.00 | 74 | 1009.0 |